FW8889 Weather Reports


Display with metric or nautical units.
time (UTC)temp
F
wind
direction
speed
MPH
gust
MPH
rain 1hr
in
rain 24hr
in
rain mn
in
humidity
%
barometer
mb
20260904044559 65 121 0.0 1.0 0.00 0.37 0.00 78 1012.2
20260904043103 65 0 0.0 1.0 0.00 0.37 0.00 78 1012.4
20260904041612 65 0 0.0 1.0 0.00 0.37 0.00 78 1012.5
20260904040057 65 0 0.0 1.0 0.00 0.37 0.00 78 1012.7
20260904034614 65 0 0.0 1.0 0.00 0.37 0.37 78 1012.8
20260904033049 65 0 0.0 1.0 0.00 0.37 0.37 78 1013.0
20260904031549 64 0 0.0 1.0 0.00 0.37 0.37 78 1013.0
20260904030056 64 0 0.0 0.0 0.00 0.37 0.37 80 1013.1
20260904024554 64 0 0.0 1.0 0.00 0.37 0.37 80 1013.0
20260904023052 64 0 0.0 1.0 0.00 0.37 0.37 80 1012.9
20260904021547 65 0 0.0 0.0 0.00 0.37 0.37 81 1013.0
20260904020049 65 0 0.0 1.0 0.00 0.37 0.37 81 1013.1
20260904014601 65 0 0.0 0.0 0.00 0.37 0.37 81 1013.1
20260904013056 65 0 0.0 1.0 0.00 0.37 0.37 82 1013.3
20260904011601 66 0 0.0 1.0 0.00 0.37 0.37 82 1013.5
20260904010049 66 0 0.0 1.0 0.00 0.37 0.37 82 1013.3
20260904004554 66 0 0.0 0.0 0.00 0.37 0.37 83 1013.2
20260904003052 67 0 0.0 1.0 0.00 0.37 0.37 83 1012.9
20260904001551 67 0 0.0 1.0 0.00 0.37 0.37 84 1012.8
20260903234556 69 0 0.0 1.0 0.00 0.37 0.37 85 1012.3
20260903233052 69 0 0.0 1.0 0.00 0.37 0.37 85 1012.4
20260903231604 70 0 0.0 1.0 0.00 0.37 0.37 85 1012.5
20260903230052 71 0 0.0 0.0 0.00 0.37 0.37 84 1012.3
20260903224600 72 0 0.0 1.0 0.00 0.37 0.37 84 1012.2
20260903223112 73 0 0.0 1.0 0.00 0.37 0.37 83 1012.9
20260903221556 73 0 0.0 1.0 0.00 0.37 0.37 83 1012.9
20260903220104 74 0 0.0 1.0 0.00 0.37 0.37 82 1012.8
20260903214553 73 0 0.0 1.0 0.00 0.37 0.37 82 1012.7
20260903213055 73 0 0.0 1.0 0.00 0.37 0.37 81 1012.7
20260903211558 73 0 0.0 1.0 0.00 0.37 0.37 82 1012.6
20260903210055 73 0 1.0 2.0 0.00 0.37 0.37 81 1012.6
20260903204602 74 121 0.0 2.0 0.00 0.37 0.37 80 1012.7
20260903203055 73 121 0.0 1.0 0.00 0.37 0.37 82 1012.8
20260903201554 72 0 0.0 2.0 0.00 0.37 0.37 81 1012.8
20260903200051 73 121 0.0 1.0 0.00 0.37 0.37 81 1013.1
20260903194552 73 0 0.0 2.0 0.00 0.37 0.37 82 1013.2
20260903193104 72 122 0.0 3.0 0.00 0.37 0.37 81 1013.2
20260903191601 71 0 0.0 2.0 0.00 0.37 0.37 83 1013.2
20260903190054 71 0 0.0 1.0 0.00 0.37 0.37 84 1013.7
20260903184552 70 122 1.0 2.0 0.00 0.37 0.37 84 1013.9
20260903183116 69 0 0.0 1.0 0.00 0.37 0.37 85 1013.8
20260903181612 69 0 0.0 1.0 0.00 0.37 0.37 85 1014.2
20260903180051 69 122 0.0 2.0 0.00 0.37 0.37 85 1014.3
20260903174547 69 132 0.0 2.0 0.00 0.37 0.37 85 1014.5
20260903173107 69 0 0.0 2.0 0.00 0.37 0.37 85 1014.3
20260903171559 68 0 0.0 3.0 0.00 0.37 0.37 85 1014.1
20260903170050 68 0 0.0 3.0 0.00 0.37 0.37 84 1014.2
20260903164559 67 0 0.0 2.0 0.00 0.37 0.37 84 1014.3
20260903163056 67 0 0.0 2.0 0.00 0.37 0.37 82 1014.3
20260903161609 67 0 0.0 3.0 0.00 0.37 0.37 81 1014.2
20260903160059 67 0 0.0 3.0 0.00 0.37 0.37 80 1014.4
20260903154553 66 0 0.0 1.0 0.00 0.37 0.37 80 1014.5
20260903153054 66 293 0.0 1.0 0.00 0.37 0.37 80 1014.8
20260903151551 66 0 0.0 2.0 0.00 0.37 0.37 78 1014.9
20260903150058 65 294 0.0 2.0 0.00 0.37 0.37 77 1014.8
20260903144558 65 0 0.0 1.0 0.00 0.37 0.37 78 1015.1
20260903143050 65 0 0.0 2.0 0.00 0.37 0.37 78 1015.1
20260903141602 65 0 0.0 1.0 0.00 0.37 0.37 77 1015.5
20260903140057 64 0 0.0 1.0 0.00 0.37 0.37 77 1015.5
20260903134606 64 0 0.0 0.0 0.00 0.38 0.37 78 1015.5
20260903133104 64 0 0.0 1.0 0.00 0.38 0.37 78 1015.4
20260903131552 64 0 0.0 0.0 0.00 0.38 0.37 78 1015.5
20260903130100 63 0 0.0 1.0 0.00 0.38 0.37 78 1015.5
20260903124602 63 0 0.0 1.0 0.01 0.38 0.37 78 1015.8
20260903123052 63 0 0.0 0.0 0.02 0.38 0.37 79 1015.9
20260903121601 63 0 0.0 1.0 0.02 0.38 0.37 79 1016.1
20260903120057 63 0 0.0 0.0 0.04 0.38 0.37 79 1016.4
20260903114552 63 0 0.0 0.0 0.04 0.37 0.36 79 1016.5
20260903113101 63 0 0.0 0.0 0.06 0.36 0.35 79 1016.4
20260903111551 62 0 0.0 0.0 0.14 0.36 0.35 80 1016.5
20260903110057 62 0 0.0 1.0 0.13 0.34 0.33 80 1016.6
20260903104558 62 0 0.0 1.0 0.16 0.33 0.32 80 1016.5
20260903103103 62 0 0.0 2.0 0.17 0.30 0.29 81 1016.2
20260903101600 62 0 0.0 2.0 0.09 0.22 0.21 81 1016.7
20260903100049 62 0 0.0 0.0 0.10 0.21 0.20 82 1016.4
20260903094611 62 0 0.0 1.0 0.07 0.17 0.16 83 1016.6
20260903093104 63 294 0.0 1.0 0.12 0.13 0.12 84 1016.8
20260903091600 63 0 0.0 2.0 0.12 0.13 0.12 84 1016.7
20260903090053 63 0 0.0 2.0 0.10 0.11 0.10 85 1017.0
20260903084604 64 0 0.0 2.0 0.09 0.10 0.09 85 1016.8
20260903083106 64 0 0.0 1.0 0.00 0.01 0.00 84 1016.6
20260903081602 64 0 0.0 1.0 0.00 0.01 0.00 83 1016.5
20260903080059 64 0 0.0 1.0 0.00 0.01 0.00 83 1017.0
20260903074559 64 0 0.0 2.0 0.00 0.01 0.00 83 1017.2
20260903073115 64 0 0.0 1.0 0.00 0.01 0.00 83 1017.1
20260903071559 64 181 0.0 2.0 0.00 0.01 0.00 83 1017.3
20260903070103 64 0 0.0 2.0 0.00 0.01 0.00 83 1017.6
20260903064556 64 0 0.0 2.0 0.00 0.01 0.00 84 1018.3
20260903063125 64 0 0.0 1.0 0.00 0.01 0.00 84 1018.5
20260903061547 64 0 0.0 1.0 0.00 0.01 0.00 85 1019.0
20260903060059 64 0 0.0 1.0 0.00 0.01 0.00 86 1019.4
20260903054553 64 0 0.0 1.0 0.00 0.01 0.00 85 1019.4
20260903053056 64 0 0.0 1.0 0.00 0.01 0.00 85 1019.3
20260903051551 64 0 0.0 1.0 0.00 0.01 0.00 85 1019.5
20260903050053 64 0 0.0 1.0 0.00 0.01 0.00 85 1019.6